Theta_e
307 307 306 306 305 304 304 303 302 301 300 299 298 298 298 299 299 299 299 300 300 300 299 299 299 298 298 298 298 298 298 299 300 300 301 301 301 301 300 299 298 297 296 296 296 297 297 297 297 297 297 297 297 297 297 298 298 299 301 303 306 309 313 316 318 320 321 322 322 323 323 323 322 322 321 321 321 321 322 323 323 323 323 323 323 322
302 302 302 302 302 301 301 300 300 299 299 298 298 297 297 297 297 297 297 297 297 297 297 297 297 297 297 297 297 298 299 299 300 301 302 301 301 300 299 298 297 297 296 296 297 297 297 297 297 297 296 296 296 296 296 297 297 298 299 300 302 304 308 311 315 318 320 321 322 322 322 322 322 322 321 321 321 320 321 321 322 322 322 322 322 322
299 299 299 299 299 299 299 299 299 298 298 298 298 297 297 297 297 297 296 296 296 296 296 297 297 297 297 297 297 298 298 299 300 300 300 300 299 298 298 297 297 297 297 297 297 297 297 296 296 296 296 296 297 297 297 297 297 298 298 299 299 301 303 306 310 314 317 319 321 322 322 322 322 322 322 321 321 320 320 320 320 320 321 321 321 321
297 297 298 298 298 298 298 298 297 297 297 297 297 297 296 296 296 296 296 296 296 296 296 296 296 296 296 296 296 297 297 297 298 298 298 297 297 297 297 297 297 298 298 298 297 297 296 296 296 297 297 298 299 299 299 299 299 298 298 298 299 299 300 302 305 308 312 316 319 321 321 322 322 322 322 322 321 321 320 320 319 319 319 319 319 320
296 296 296 296 296 296 296 296 296 296 295 295 295 295 295 295 295 295 295 295 295 294 294 294 294 295 295 295 295 295 295 295 295 296 296 296 296 296 297 298 299 299 299 299 298 297 297 298 299 300 301 301 302 302 302 301 300 300 299 299 299 299 299 300 301 303 307 311 315 318 320 321 321 321 321 322 321 321 321 320 319 319 318 318 318 319
294 295 294 294 294 294 294 294 294 294 294 294 294 294 294 293 293 293 293 293 293 293 293 293 293 293 293 293 294 294 294 294 294 294 295 295 295 296 297 298 298 299 299 299 298 298 299 300 302 302 303 303 303 303 303 303 302 301 300 300 300 299 299 299 300 300 302 305 309 314 317 319 320 321 321 321 321 321 321 320 320 319 318 318 318 318
292 293 293 293 293 293 293 293 292 292 293 292 292 292 292 292 292 292 292 292 292 292 292 292 292 292 293 293 293 293 293 294 294 294 294 294 294 295 295 296 297 297 298 298 299 300 301 302 303 304 304 304 304 304 303 303 302 301 301 300 300 300 300 300 299 300 300 302 305 308 312 316 318 320 320 321 321 321 321 320 320 320 319 318 318 317
291 291 291 291 291 291 291 291 291 292 292 292 292 292 292 292 291 291 291 291 292 292 292 292 292 292 292 292 292 292 293 293 293 293 293 293 293 294 295 295 296 297 298 298 299 301 302 302 303 304 304 304 304 304 303 302 302 301 300 300 300 299 299 299 299 299 299 300 302 304 307 311 315 317 319 320 320 320 320 320 320 320 319 319 318 318
290 290 291 291 291 291 291 291 291 291 291 291 291 291 291 291 291 291 291 292 292 292 292 292 292 292 292 292 292 292 292 292 292 292 292 293 293 294 295 296 297 298 299 300 300 301 302 302 303 303 304 304 304 304 303 302 302 301 300 299 298 298 297 297 297 298 298 299 300 301 303 307 311 314 317 319 320 320 320 319 319 319 319 319 319 318
290 290 290 291 291 291 291 291 291 291 291 291 291 292 292 292 292 292 292 292 292 292 292 292 292 292 291 291 291 291 291 291 292 292 292 293 294 295 296 297 298 299 299 300 301 301 302 302 303 303 303 303 304 304 303 303 302 301 300 299 297 296 295 295 296 297 297 298 299 300 301 303 307 311 314 317 319 320 320 319 319 319 319 319 319 319
290 290 290 291 291 291 291 291 291 291 291 292 292 292 292 292 292 292 292 292 292 292 292 292 292 292 291 291 291 291 291 291 291 291 292 293 294 295 296 297 297 298 299 300 300 301 301 301 302 302 302 303 303 303 302 302 301 300 298 297 295 295 294 295 295 296 297 298 298 299 299 301 303 307 311 315 317 319 320 320 320 319 319 319 319 318
289 290 290 291 291 291 291 291 291 291 292 292 292 292 292 292 292 292 292 292 292 291 291 291 291 291 291 291 291 291 291 291 291 291 291 291 292 293 293 294 295 296 296 297 297 298 298 299 299 299 300 300 300 300 299 299 298 297 296 295 294 294 294 295 296 297 297 298 298 298 298 299 301 303 307 311 315 317 319 320 320 320 320 319 319 319
289 289 290 290 290 291 291 291 291 291 291 291 291 291 291 291 291 291 291 291 291 291 291 291 291 291 290 290 290 290 290 290 290 290 291 291 291 291 291 292 292 292 293 293 293 294 294 294 295 295 295 295 295 295 295 295 294 294 294 293 293 293 294 294 295 296 297 298 298 298 298 299 299 301 304 308 312 315 318 319 320 320 320 320 320 320
288 289 289 289 289 290 290 290 290 290 291 291 291 291 291 291 291 291 291 291 291 291 291 290 290 290 290 290 290 290 290 290 291 291 291 291 291 291 291 291 291 291 291 291 291 291 291 292 292 292 292 293 293 293 293 293 293 293 293 294 293 293 293 293 293 294 295 297 298 298 299 299 299 300 301 304 308 311 315 317 318 319 320 320 321 321
289 289 289 289 289 289 289 289 289 289 289 290 290 290 290 290 290 290 290 290 290 290 290 290 290 290 290 290 290 290 291 291 291 291 291 291 291 291 291 291 291 291 291 291 291 291 291 291 291 291 292 292 292 292 293 293 293 293 294 294 294 294 293 293 293 293 293 295 296 297 298 299 299 300 300 302 304 308 311 314 316 317 318 319 320 320
290 290 289 289 289 289 289 289 289 289 289 289 289 289 289 289 289 289 289 289 289 289 289 290 290 290 290 290 290 290 291 291 291 291 291 291 291 291 291 291 291 291 291 291 291 291 291 291 291 291 291 291 292 292 292 292 293 293 293 293 293 293 293 293 293 293 292 293 294 295 297 298 299 300 301 301 303 305 308 311 313 315 316 317 318 319
290 290 290 289 289 289 289 289 289 289 289 289 289 289 289 289 289 289 289 289 289 289 290 290 290 290 290 290 290 290 290 291 291 291 291 291 291 291 291 291 291 291 291 291 291 291 291 291 291 291 291 291 291 291 291 291 291 291 291 291 291 291 291 292 292 292 292 292 292 293 294 297 299 300 301 301 302 303 305 308 311 313 315 316 317 317
290 290 290 289 289 289 289 289 289 289 289 289 289 289 289 289 289 289 289 289 289 289 290 290 290 290 290 290 290 290 290 290 290 290 290 290 290 290 290 290 290 290 290 290 290 290 290 290 290 290 290 290 290 290 290 290 290 290 290 290 290 290 290 290 291 291 291 291 291 292 292 295 297 299 301 302 302 303 304 307 309 312 313 315 315 316
290 290 290 290 290 289 289 289 289 289 289 289 289 289 289 289 289 289 289 289 289 289 289 289 289 289 289 289 289 289 289 289 289 289 290 289 289 289 289 289 289 289 289 289 289 289 289 289 289 289 289 289 289 289 289 290 290 290 289 289 289 290 290 290 290 290 290 290 291 291 291 293 295 298 300 302 302 303 304 306 308 311 313 314 315 315
289 289 289 289 289 289 289 289 289 289 289 289 289 288 288 288 288 288 288 288 289 289 289 289 289 289 289 289 289 289 289 289 289 289 290 290 290 290 289 289 289 289 289 288 288 288 289 289 289 289 289 289 290 290 290 290 290 290 290 290 290 290 290 290 290 290 290 290 291 291 290 291 293 296 299 301 302 303 304 305 307 310 312 313 314 315
288 288 288 288 288 288 288 288 288 288 288 288 288 288 287 288 288 288 288 288 288 288 288 289 289 289 290 290 290 290 290 290 290 290 289 289 289 289 288 288 288 288 288 288 288 288 289 289 289 289 289 289 290 290 290 290 290 290 290 290 290 290 290 290 290 291 291 291 291 291 290 290 292 294 297 300 301 302 303 304 306 308 310 311 313 314
287 287 287 287 287 287 287 287 287 287 287 287 287 286 287 287 287 287 287 288 288 288 288 289 289 289 289 289 289 289 289 289 289 288 288 288 288 288 288 288 288 288 288 288 289 289 289 289 289 289 289 289 289 290 290 290 290 290 290 290 290 290 290 290 291 291 291 292 292 292 291 291 291 292 295 298 300 301 302 303 304 306 308 310 311 313
286 286 286 286 286 286 286 286 286 286 286 287 288 288 288 288 288 288 288 288 288 288 288 287 287 287 288 288 288 288 288 288 288 288 288 288 288 288 288 288 288 288 289 289 289 289 289 289 289 289 289 289 289 289 289 290 290 290 290 290 291 291 291 291 291 291 291 292 293 293 292 291 291 292 294 296 298 300 301 302 303 304 306 307 309 311
287 287 287 287 287 286 286 286 286 287 287 288 288 289 289 289 288 288 288 288 288 288 288 288 288 288 288 288 288 288 288 288 288 288 288 288 288 288 288 288 288 289 289 288 289 289 289 289 289 289 289 289 289 289 289 290 290 290 290 290 290 290 290 291 291 291 291 292 293 294 294 293 292 292 293 295 297 299 300 301 302 303 304 305 306 308
287 287 287 287 287 287 287 287 287 287 288 288 288 288 288 288 288 287 288 288 288 289 289 289 289 289 288 288 288 288 288 288 288 288 288 288 288 288 288 288 288 288 288 288 288 289 289 288 288 288 288 289 289 289 289 290 290 290 290 290 290 290 290 290 290 291 291 292 293 294 294 294 293 293 293 294 295 297 299 300 301 302 302 303 304 306
287 287 287 287 287 287 287 287 287 288 288 288 288 288 288 287 287 287 287 288 289 289 290 290 290 290 289 289 288 288 288 288 288 288 289 289 288 288 289 289 289 289 289 288 288 288 288 288 288 288 288 289 289 289 289 289 289 289 289 289 289 289 290 290 290 291 291 292 293 294 294 294 294 293 293 293 294 295 297 298 299 300 301 302 303 304
288 288 288 288 287 287 288 288 288 288 288 289 288 288 288 287 287 287 288 288 289 289 290 290 290 290 290 289 289 288 288 288 289 289 289 289 289 289 289 289 289 289 289 289 288 288 288 288 288 288 288 289 289 289 289 289 289 289 289 289 290 290 290 291 291 292 293 293 294 294 295 294 294 293 293 293 293 294 295 296 297 298 299 300 302 303
289 289 288 288 288 288 288 288 288 288 288 288 288 288 288 287 287 287 287 288 289 289 290 290 290 290 290 289 289 289 289 289 289 290 290 290 290 290 289 289 289 289 289 288 288 288 288 288 288 289 289 289 289 289 289 289 289 289 290 290 291 291 292 292 293 294 294 294 295 295 295 295 294 294 293 293 293 293 294 295 296 297 298 300 301 302
289 289 289 289 289 288 288 288 288 288 288 288 288 287 287 287 287 287 287 288 289 290 290 290 290 290 290 290 290 290 290 290 290 290 290 290 290 290 289 289 289 289 288 288 288 288 289 289 289 289 289 289 289 289 289 289 289 289 290 291 291 292 292 293 294 294 295 295 295 295 296 295 295 295 294 294 294 294 295 295 297 298 299 301 301 302
289 289 289 289 289 289 288 288 288 287 287 287 287 286 286 286 286 286 287 287 288 288 289 289 290 290 291 291 291 290 290 290 290 290 290 289 289 289 289 289 288 288 288 289 289 289 289 289 289 289 289 289 289 289 289 288 289 289 290 290 291 292 292 292 293 293 294 294 294 295 295 295 296 296 296 296 296 296 297 297 298 299 300 301 301 302
288 288 288 288 288 288 287 287 287 286 286 286 286 286 286 287 287 286 286 286 287 287 287 288 289 289 290 290 290 290 289 289 289 289 289 289 288 288 288 288 288 288 288 289 289 289 289 289 289 289 289 289 288 288 288 288 288 289 290 290 291 291 291 292 292 292 292 292 293 293 294 295 295 296 297 297 297 297 297 297 297 298 299 300 300 301
287 287 287 287 286 286 286 286 286 286 286 286 286 286 287 287 287 287 287 287 286 286 286 287 287 287 288 288 288 288 288 288 288 288 288 288 288 288 288 288 288 288 288 288 288 289 288 288 288 288 288 288 288 288 288 288 289 290 290 291 291 291 291 291 291 291 291 290 291 291 292 293 294 295 295 296 296 297 296 296 296 296 297 298 299 299
286 286 286 286 286 286 286 286 286 286 286 286 287 287 287 287 287 287 287 287 286 286 286 286 286 287 287 287 287 287 287 287 288 288 288 288 288 287 288 288 288 288 288 288 288 288 288 288 288 288 288 288 288 288 288 289 290 291 291 291 291 291 291 291 290 290 290 289 289 289 290 291 292 293 294 294 295 295 295 295 295 295 296 297 298 298
286 286 286 286 286 286 286 286 286 286 286 287 287 287 287 287 287 287 287 287 286 286 286 286 286 286 286 287 287 287 287 287 287 287 287 288 288 288 288 288 288 288 288 288 288 288 288 288 288 288 288 288 288 289 289 289 290 290 290 290 290 290 290 290 290 290 289 289 289 289 290 291 292 293 294 294 294 294 294 294 294 295 295 296 297 298
284 284 285 285 285 285 285 285 285 286 286 287 287 286 286 287 287 287 287 287 287 287 287 287 287 286 287 287 287 287 287 287 287 288 288 288 288 288 288 288 288 288 288 288 288 288 288 288 288 288 289 289 289 290 290 290 289 289 289 289 289 289 289 289 289 289 288 288 288 289 290 291 292 293 294 294 294 294 294 294 294 295 295 296 297 297
283 283 284 284 284 284 284 284 284 284 285 285 285 285 286 286 287 287 287 287 287 286 285 285 285 285 286 286 286 286 286 287 287 287 287 288 288 288 288 288 288 289 289 289 289 289 289 289 289 289 290 290 290 290 289 289 289 288 288 288 288 288 288 288 288 288 288 288 288 289 289 290 291 292 293 293 293 293 293 293 294 294 295 296 297 297
282 282 283 283 283 283 283 283 283 284 284 284 285 285 285 286 286 286 286 286 285 285 284 284 284 284 284 285 285 285 285 285 286 286 286 286 287 288 288 288 289 289 289 289 289 288 288 289 289 290 290 290 290 289 289 288 288 288 288 288 288 288 288 288 288 288 288 288 288 289 289 289 290 291 292 292 292 292 292 293 293 294 294 295 296 297
282 282 282 282 282 283 283 283 283 284 284 284 284 284 284 284 284 284 285 284 284 284 284 284 284 284 284 284 284 284 284 284 285 285 285 285 285 286 286 287 287 287 287 288 287 287 288 288 289 289 289 289 289 289 288 288 288 288 288 288 288 288 288 288 288 288 288 288 289 289 289 289 289 290 290 290 291 291 291 292 292 293 294 295 296 297
281 282 282 282 282 282 283 283 283 283 283 283 283 283 283 283 283 283 283 283 283 283 283 283 283 283 283 283 283 284 284 284 284 284 284 284 284 285 285 285 285 286 286 286 286 286 287 287 287 288 288 288 288 288 288 288 288 288 288 288 288 288 288 288 288 288 288 288 289 289 289 289 289 289 289 289 289 290 290 291 291 292 292 293 295 296
281 281 281 282 282 282 282 282 282 282 282 283 283 283 283 283 283 283 283 283 283 283 283 283 283 283 283 283 283 283 284 284 284 284 284 285 285 285 285 285 285 285 285 285 285 286 286 287 287 287 288 288 288 288 288 288 288 288 288 288 288 288 288 288 288 288 288 288 288 289 289 289 289 289 289 289 289 289 290 290 291 291 291 292 293 295
281 281 281 281 281 281 282 282 282 283 283 283 283 283 283 283 284 284 284 284 283 283 283 283 283 283 283 283 283 283 284 284 285 285 285 285 285 286 286 286 286 286 286 286 286 286 286 286 287 287 287 287 288 288 288 288 288 288 288 288 288 288 288 288 288 288 288 288 289 289 289 289 289 289 289 289 290 290 290 291 291 291 291 292 292 294
281 281 281 281 281 282 282 282 283 283 283 283 283 283 283 283 284 284 284 284 283 283 283 283 283 283 283 283 283 284 284 284 285 285 285 285 285 285 285 286 286 286 286 286 286 286 286 286 286 287 287 287 287 288 288 288 288 288 288 288 288 288 288 288 288 288 289 289 289 289 289 289 289 289 289 290 290 291 291 292 292 292 292 292 292 293
281 281 282 282 282 282 282 282 282 282 282 282 282 282 282 282 282 282 282 282 282 282 282 282 282 283 283 284 284 284 285 285 285 285 284 284 284 285 285 286 286 287 287 287 287 287 287 287 287 287 287 287 287 288 288 288 288 288 288 289 289 289 289 289 289 289 289 289 289 289 289 289 289 289 289 290 291 291 292 292 291 291 291 291 292 293
281 282 282 282 282 282 282 282 281 281 281 281 281 281 281 281 281 281 282 282 282 282 282 283 283 284 284 284 284 284 284 283 283 283 284 284 284 285 285 286 286 287 287 287 287 287 287 287 287 287 287 287 287 288 288 288 289 289 289 289 289 289 289 289 289 289 289 288 288 288 288 288 289 289 289 290 290 291 291 291 291 291 291 291 292 293
281 281 281 281 281 280 280 280 280 280 280 280 280 281 281 281 281 281 282 282 282 282 282 283 283 283 282 282 282 282 282 282 283 283 283 284 284 285 285 286 286 287 287 287 287 287 287 287 287 287 287 287 287 288 288 288 289 289 289 289 289 289 289 289 288 288 288 288 288 288 288 288 289 289 289 289 290 290 291 291 291 292 292 293 293 294
280 280 280 280 280 280 280 279 279 279 279 280 280 280 280 281 281 281 281 281 281 281 281 281 281 281 281 281 281 281 282 282 282 282 283 283 284 285 285 286 287 287 288 288 288 288 288 288 287 287 287 287 287 287 287 288 288 288 288 288 288 288 288 288 288 288 288 288 288 288 288 289 289 289 289 290 290 291 291 292 292 292 293 293 294 295
279 279 279 279 279 279 279 279 279 279 279 279 280 280 280 280 280 280 280 280 280 280 280 280 280 281 281 281 281 281 281 281 282 282 282 283 283 284 285 285 286 287 287 288 288 288 288 288 288 288 288 288 288 288 288 288 287 287 287 288 288 288 288 288 288 288 288 288 288 288 289 289 289 289 290 290 291 292 292 293 293 293 293 293 294 295
278 278 278 278 278 279 279 279 279 279 279 279 279 279 279 280 280 280 280 280 280 280 280 280 280 280 280 280 281 281 281 281 281 282 282 282 283 283 284 284 285 285 286 286 287 288 288 288 288 288 288 288 288 288 288 287 287 287 287 288 288 288 288 288 288 288 288 288 288 289 289 289 289 290 290 291 291 292 293 293 293 293 293 293 294 294
278 278 278 278 278 278 278 278 278 279 279 279 279 279 279 279 279 279 279 279 280 280 280 280 280 280 280 281 281 281 281 281 282 282 282 283 283 283 284 284 284 285 285 285 286 286 287 287 287 288 288 288 288 288 287 287 287 287 287 288 288 288 288 288 288 288 288 288 289 289 289 290 290 290 290 291 292 292 293 293 293 292 292 293 293 294
278 278 278 278 278 278 278 278 278 278 278 278 279 279 279 279 279 279 279 279 279 279 280 280 280 280 280 281 281 281 281 282 282 282 282 283 284 284 284 284 285 285 285 285 285 286 286 286 286 287 287 287 287 287 287 287 287 288 288 288 288 288 288 288 289 289 289 289 289 289 290 290 290 290 291 292 293 293 293 293 292 292 292 293 293 294
278 278 278 278 278 278 278 278 278 278 278 278 278 278 278 278 278 279 279 279 279 279 279 279 279 280 280 280 280 281 281 281 282 282 283 284 284 284 284 285 285 285 285 285 286 286 286 287 287 287 287 287 287 288 288 288 288 288 289 289 289 289 289 289 289 290 290 290 290 290 290 290 290 291 292 293 293 294 293 293 292 292 292 293 294 295
Wind_Speed
26 27 26 26 25 26 27 28 29 30 31 33 34 36 37 38 39 39 39 40 40 40 40 40 40 40 40 40 40 40 39 38 37 36 35 35 34 35 35 35 36 35 35 33 32 31 30 30 30 31 31 30 29 28 27 27 27 28 29 30 31 31 31 30 29 28 28 28 28 27 25 24 25 25 26 26 27 28 29 30 31 31 31 31 31 31
26 25 24 24 24 25 27 29 29 29 30 32 34 35 36 36 37 37 38 38 38 38 38 39 38 38 38 38 37 37 37 36 36 35 35 35 35 36 36 36 36 35 34 33 31 31 30 31 31 32 32 32 32 30 29 28 28 28 29 30 31 31 32 31 31 30 29 30 30 29 27 26 26 26 27 28 28 29 30 31 32 32 33 32 32 32
24 23 24 24 25 26 27 28 29 29 30 31 33 33 34 35 36 36 36 37 37 37 37 36 36 36 36 36 36 36 36 36 37 37 37 37 37 37 37 36 36 34 33 32 31 31 31 31 31 31 31 31 31 30 29 29 28 29 29 30 31 31 32 32 32 31 31 31 31 31 30 28 27 27 28 29 29 30 31 32 32 33 34 34 34 34
25 25 25 26 26 27 28 28 29 30 30 31 32 33 33 34 35 35 36 36 36 36 36 36 36 36 36 37 37 37 37 37 38 38 38 38 38 37 36 35 34 33 32 32 31 31 30 30 29 29 29 28 28 28 28 28 28 28 29 30 30 31 32 33 33 33 33 33 33 33 33 31 30 29 29 29 30 31 32 32 33 33 34 34 35 35
27 26 27 27 28 29 29 29 30 30 31 32 32 33 33 34 34 35 35 35 36 36 36 36 36 36 37 37 37 37 37 38 38 38 38 37 36 35 34 33 32 31 31 31 30 29 28 27 26 26 26 26 26 27 27 27 28 28 28 28 29 30 31 32 33 34 34 34 34 34 35 34 33 31 30 30 30 31 32 32 33 34 34 35 35 35
29 29 29 29 29 30 31 31 31 32 32 33 33 34 34 34 34 35 35 35 35 35 35 35 35 35 36 36 36 36 36 36 36 36 36 35 34 34 33 32 32 31 30 30 28 27 25 24 24 24 25 25 26 27 28 28 28 28 27 27 28 29 30 31 33 34 35 35 35 36 36 36 35 34 32 30 31 31 32 32 33 34 35 35 35 36
31 30 30 30 31 32 32 33 33 33 33 33 34 35 34 34 34 34 34 34 34 34 34 34 34 33 33 33 33 33 33 33 33 34 34 34 34 33 33 33 32 31 30 28 27 25 23 23 24 24 25 26 27 28 29 30 30 29 28 27 27 28 29 30 32 33 35 36 36 37 37 37 37 36 34 32 32 32 33 33 33 34 35 35 36 36
32 32 31 31 32 33 33 33 33 32 32 32 33 34 34 34 33 33 33 32 32 32 32 32 32 31 31 31 31 31 31 31 32 32 32 32 32 32 32 31 30 29 28 27 25 24 23 23 24 25 26 26 27 28 30 31 31 31 30 29 29 28 29 29 31 32 34 36 37 38 38 38 38 37 36 34 33 34 35 35 35 35 35 36 36 36
31 32 32 32 31 32 32 33 33 32 31 31 31 31 32 32 32 32 32 31 31 30 30 30 31 31 30 30 29 29 29 30 30 30 30 30 30 30 29 29 28 28 27 26 25 25 24 24 25 26 27 27 28 29 30 32 32 33 33 32 32 31 30 30 30 31 33 34 36 38 39 39 39 38 37 35 34 35 36 37 37 37 37 37 37 37
30 31 31 31 31 30 30 31 32 31 29 28 29 29 29 30 30 31 31 31 30 29 29 29 29 30 30 30 29 28 28 28 28 28 28 28 28 28 28 28 27 27 27 26 26 26 26 27 27 28 29 29 30 31 32 33 34 35 35 35 34 33 31 30 30 30 31 33 35 37 38 39 39 39 38 37 36 36 37 38 39 39 39 39 39 39
30 30 30 30 30 29 29 29 29 29 27 27 27 27 27 27 27 28 29 30 30 29 28 28 29 29 30 30 30 29 29 29 29 28 28 28 28 28 29 29 29 29 29 29 29 29 29 30 30 30 31 32 32 33 34 34 35 36 37 36 35 34 31 29 28 28 29 31 33 35 37 38 39 40 39 39 38 37 37 38 39 40 41 41 41 41
29 29 29 29 29 28 28 28 27 27 26 25 26 27 27 26 25 26 27 29 30 30 29 30 30 30 30 30 31 31 30 30 30 30 30 30 30 30 31 31 32 32 32 33 33 33 33 33 33 34 34 35 35 35 36 36 37 37 37 36 35 33 31 28 27 27 27 28 30 32 35 37 39 40 40 40 39 39 39 39 40 41 42 42 43 43
29 29 29 29 29 29 28 27 27 26 26 26 26 26 27 26 26 26 28 30 31 31 31 31 32 32 31 31 31 31 31 31 31 31 31 31 31 31 32 33 34 34 34 35 35 35 35 35 35 36 36 36 36 36 36 36 35 35 35 34 33 32 30 29 27 26 26 26 27 29 31 34 37 39 40 41 41 40 40 40 40 41 42 43 44 44
29 29 29 29 30 29 29 28 28 28 28 27 27 27 28 29 29 29 30 32 32 32 31 32 32 33 32 31 30 29 29 29 30 30 30 30 30 30 31 32 33 33 34 34 35 34 34 34 35 35 35 35 34 34 34 33 33 33 33 32 32 32 31 30 29 28 26 26 26 27 28 31 33 36 39 41 42 42 41 41 41 41 42 43 44 45
28 28 29 30 30 30 30 29 29 30 30 29 29 30 30 31 31 31 31 32 32 32 31 31 32 33 32 30 28 26 25 25 26 27 27 28 28 28 28 30 31 32 32 32 33 33 32 32 33 33 33 33 33 32 32 32 32 32 32 33 33 33 33 33 32 30 29 27 26 26 26 28 30 33 36 39 41 42 42 42 41 41 42 43 44 44
28 28 29 30 30 30 29 28 28 29 29 29 29 29 30 30 30 30 29 30 31 30 30 30 30 31 30 28 25 22 22 23 24 25 26 27 28 27 27 28 30 31 31 31 32 32 31 31 31 32 32 32 33 33 33 33 33 33 33 34 34 35 35 35 34 33 32 30 28 27 26 26 27 30 32 36 39 41 42 42 42 41 41 42 43 44
27 27 28 28 29 28 28 27 26 26 27 27 27 27 27 27 27 27 27 28 28 28 27 27 27 28 28 27 25 22 20 21 23 25 27 29 29 29 28 28 30 32 32 33 33 33 32 32 32 33 33 33 34 34 34 34 35 35 35 35 35 36 36 36 36 36 35 33 31 29 27 27 27 28 30 33 36 39 41 42 41 41 41 41 42 44
24 24 25 25 26 26 26 25 25 25 25 25 25 25 25 26 25 25 25 26 26 26 26 26 26 26 27 27 26 24 22 23 26 28 30 32 33 32 31 32 33 35 35 35 35 35 34 34 34 35 35 35 35 35 35 35 35 36 36 36 36 36 36 37 37 37 37 36 34 32 29 28 27 27 28 30 33 36 39 41 41 40 40 40 41 42
23 23 22 23 23 24 23 23 23 23 23 23 24 25 26 26 26 26 26 26 26 26 27 28 28 28 28 29 29 28 26 27 29 30 32 34 35 35 34 34 35 37 37 37 37 36 35 35 35 35 35 35 34 34 34 34 35 35 35 35 36 36 36 36 37 37 37 37 36 34 32 30 29 28 28 29 31 34 37 39 40 41 40 40 40 41
26 26 25 25 25 25 25 24 23 23 23 24 24 25 27 27 27 26 27 26 27 27 27 28 29 29 29 30 30 28 26 25 27 29 30 31 33 35 35 34 35 37 38 38 37 36 35 34 34 34 34 33 33 33 33 33 34 34 34 34 34 35 35 35 35 36 36 36 36 35 33 32 30 29 29 29 30 32 34 37 40 41 41 41 40 41
31 31 30 29 30 30 29 27 26 26 26 26 27 27 28 27 27 27 27 26 26 27 27 27 28 27 27 27 27 25 23 23 25 28 31 33 36 36 35 33 34 35 36 36 35 34 33 33 33 33 33 33 32 32 32 32 32 32 33 33 33 33 33 33 33 33 33 33 34 34 33 32 32 31 30 29 29 30 32 35 38 41 42 42 42 41
33 34 34 32 32 32 32 32 30 29 27 26 26 26 26 26 26 27 27 27 27 27 27 28 28 28 29 30 30 30 29 29 31 32 33 34 36 36 33 31 31 32 34 34 34 33 33 33 33 33 32 32 31 31 30 30 30 31 31 32 32 32 32 32 31 30 30 30 30 31 31 32 32 32 31 30 30 30 31 33 36 39 42 43 43 42
28 29 29 29 29 29 29 28 27 25 23 21 21 22 23 24 26 28 29 29 29 30 30 31 31 32 33 34 35 35 34 33 32 32 30 32 33 33 30 28 29 31 33 33 33 33 33 32 32 31 31 31 30 30 29 29 29 29 29 30 31 31 32 31 31 30 28 27 27 27 28 30 31 32 32 32 31 31 31 32 34 37 40 42 43 43
26 27 27 27 27 26 26 25 24 22 20 20 21 22 24 25 27 29 31 32 32 33 34 34 34 34 34 34 34 34 33 30 28 27 28 30 30 30 29 27 28 30 33 33 32 32 32 32 31 30 30 30 29 28 28 28 28 28 28 28 29 30 31 31 31 30 29 27 26 25 26 27 29 31 32 32 32 31 31 31 32 34 36 39 41 42
26 27 27 27 27 27 26 25 24 23 22 22 22 23 25 26 28 30 32 33 35 36 36 35 35 35 34 31 31 32 31 28 25 25 27 29 30 30 28 26 26 29 31 31 30 30 32 33 32 31 30 29 28 27 27 27 27 27 27 27 28 29 30 31 31 30 29 28 26 25 25 26 27 29 30 32 32 32 32 31 31 32 33 35 38 39
25 26 27 27 26 26 26 26 25 23 22 22 22 23 24 27 29 32 34 35 36 37 37 37 36 35 33 31 31 31 30 28 27 26 27 29 30 29 28 25 25 27 30 30 30 30 32 33 33 32 30 29 27 26 25 26 26 26 26 26 26 27 28 28 28 28 28 27 27 26 26 26 27 27 29 30 31 32 32 32 31 31 31 32 34 36
25 25 25 25 25 25 26 26 25 24 23 23 23 23 24 27 31 33 36 36 37 37 37 37 36 35 34 33 32 32 31 29 28 28 28 28 30 30 28 25 25 28 31 31 30 30 31 32 32 30 29 28 27 25 24 24 24 23 23 23 23 23 24 24 25 25 26 26 26 27 27 27 26 26 27 28 30 31 32 32 31 31 30 30 32 34
25 25 25 25 25 25 25 24 24 24 23 23 24 26 27 30 32 35 37 37 36 36 37 36 35 35 34 33 33 33 32 31 30 28 25 25 27 28 26 24 25 28 30 30 29 29 30 31 30 29 28 26 25 24 23 23 22 21 21 20 21 21 23 24 25 25 26 26 26 26 26 26 26 25 26 26 28 29 30 30 30 29 29 29 30 32
25 24 24 24 23 23 23 23 24 24 25 26 29 31 32 32 33 35 36 36 35 34 35 34 34 34 34 34 34 32 31 29 26 23 19 20 24 26 25 24 26 28 28 27 27 28 28 28 27 26 25 23 22 22 22 22 21 20 20 20 21 22 24 25 26 27 27 27 27 26 26 25 25 24 24 24 25 26 27 27 27 26 27 29 30 31
26 25 23 22 21 21 22 24 27 29 31 33 34 34 33 31 31 32 33 33 33 33 32 33 33 32 31 30 28 26 24 23 20 17 16 20 24 25 24 24 26 27 26 24 24 26 26 24 22 21 21 21 21 22 23 23 23 22 21 22 23 24 26 27 28 28 29 29 29 28 27 26 24 23 23 22 22 23 24 24 25 25 26 28 30 31
28 26 25 24 24 25 28 30 33 35 35 36 35 33 32 30 30 30 30 31 32 32 32 32 32 31 29 26 24 22 22 21 20 19 21 24 27 27 23 23 25 27 24 22 21 23 24 22 20 19 21 22 24 25 26 26 25 24 24 25 26 27 28 28 29 30 30 31 31 30 29 27 26 25 23 22 21 22 23 23 24 25 26 28 29 31
30 30 30 31 31 32 33 33 34 34 34 34 34 33 31 30 29 29 30 31 32 32 32 33 33 33 31 30 29 28 27 27 26 26 26 28 29 27 24 24 26 27 25 23 23 23 24 24 22 22 24 27 29 30 29 27 26 25 25 25 26 27 28 28 29 30 31 31 31 31 30 30 29 28 26 24 23 23 24 24 24 25 26 27 29 31
31 32 32 32 33 33 32 32 32 31 31 32 32 31 29 28 28 29 31 32 32 32 32 33 33 33 32 32 33 33 33 33 31 29 28 29 29 28 27 26 27 29 27 26 26 26 27 28 28 29 30 33 34 33 30 27 25 24 24 25 25 26 27 28 30 31 32 32 30 29 28 29 29 29 27 26 26 25 25 25 24 24 25 26 28 30
30 30 30 30 30 30 30 30 29 29 29 29 28 27 26 26 27 28 30 31 32 32 32 32 32 32 32 31 32 33 33 33 32 29 28 29 30 31 30 30 30 30 30 29 28 28 28 31 33 34 35 35 34 32 28 26 25 26 27 29 30 30 31 31 32 33 33 32 29 27 25 24 25 25 26 26 27 27 27 26 25 24 24 25 26 28
30 29 29 28 28 28 28 27 27 27 27 27 26 25 24 24 25 26 27 27 26 25 25 26 27 28 28 30 32 33 32 32 30 29 28 29 30 32 33 33 33 32 31 31 29 27 27 31 35 36 36 34 31 28 25 24 25 28 31 34 35 35 35 35 34 34 33 31 29 26 25 23 23 24 26 26 27 27 27 27 26 24 23 23 24 26
28 27 26 26 27 27 27 27 27 27 27 27 26 25 24 23 23 22 22 22 23 24 25 25 25 26 27 28 30 31 32 32 31 30 29 30 30 31 32 33 31 30 28 28 27 27 27 31 33 34 33 30 27 25 24 24 27 30 34 36 36 35 35 34 33 32 32 30 29 27 26 26 26 27 27 27 27 27 28 28 27 26 24 23 24 25
26 26 25 25 25 25 26 26 25 25 25 25 25 25 25 26 26 27 29 31 32 33 33 32 31 30 30 30 31 32 33 34 33 32 32 32 32 32 33 33 32 30 28 28 28 28 29 31 32 31 29 27 25 24 25 26 29 33 35 36 35 34 33 32 32 32 32 31 30 28 27 27 28 28 29 28 28 29 29 29 28 27 25 24 23 24
25 24 23 23 23 23 23 23 23 23 23 24 25 26 27 28 30 32 34 35 36 35 34 33 32 31 31 31 32 33 34 35 35 35 35 35 35 35 36 37 37 36 35 34 33 32 32 32 33 33 31 30 29 29 28 28 30 31 33 33 33 33 33 33 33 33 32 32 30 29 28 27 27 28 29 29 29 30 30 30 29 28 27 25 24 24
21 21 21 21 21 22 22 22 23 23 24 25 25 26 26 26 27 27 28 29 30 30 30 30 29 29 29 30 31 31 32 33 33 33 34 34 35 35 36 38 39 39 38 37 36 35 34 34 34 33 33 32 32 32 31 30 30 30 31 32 33 34 34 33 33 32 31 31 30 30 30 29 28 28 28 28 28 29 29 30 30 29 28 26 25 24
21 21 21 21 21 22 22 23 23 24 24 25 25 25 25 25 25 25 25 25 27 28 28 29 30 30 31 31 30 29 29 28 28 28 29 29 30 31 32 35 37 37 36 37 37 36 36 35 34 34 34 34 33 32 32 32 32 32 31 31 31 32 33 33 33 32 31 31 31 32 32 32 31 29 28 26 26 26 27 27 28 28 27 26 25 24
22 22 22 23 23 24 24 25 25 25 25 26 26 26 26 25 25 26 26 26 27 28 29 30 32 33 34 33 32 30 29 28 27 26 26 26 26 27 28 31 33 34 35 36 37 37 37 36 36 35 36 36 35 34 35 35 34 33 31 31 32 33 35 35 34 33 32 32 32 32 32 32 32 30 28 25 24 24 24 25 26 26 26 26 25 24
24 24 24 25 25 25 26 26 26 26 26 26 26 26 25 25 25 25 25 26 26 27 28 30 31 32 33 34 33 32 30 30 29 29 29 28 28 28 28 29 30 31 32 34 35 36 36 36 36 36 35 36 36 36 37 37 37 36 35 34 35 35 36 36 35 33 31 30 30 30 31 31 31 30 28 26 25 25 25 25 26 27 27 26 25 25
26 26 26 26 26 26 26 26 26 26 26 26 26 27 27 27 27 27 26 27 28 29 31 31 31 31 31 32 31 30 29 28 28 30 31 31 31 29 28 28 28 28 29 31 33 34 34 34 35 35 35 35 35 36 37 38 38 37 35 34 33 33 32 33 33 31 29 29 30 31 31 31 31 30 29 28 27 27 27 28 28 27 27 26 25 25
26 26 27 27 27 27 28 28 29 29 29 29 29 29 29 27 26 26 27 28 29 29 29 29 28 28 28 28 28 29 30 31 31 31 31 31 30 29 28 27 27 26 27 29 31 32 32 33 34 34 33 33 33 34 35 36 36 35 33 31 31 31 31 32 33 33 32 33 33 33 33 33 32 31 29 28 28 28 28 29 28 27 26 25 25 25
27 27 28 29 30 30 31 31 31 30 29 28 27 27 26 25 25 25 26 27 28 28 27 27 27 28 30 31 31 31 31 31 30 29 27 27 26 26 26 26 27 27 27 28 29 30 31 33 33 32 31 31 32 32 33 34 34 34 33 31 31 31 33 35 36 36 35 35 35 34 33 31 30 29 29 29 29 28 27 26 26 25 24 23 23 24
28 29 30 30 30 30 29 29 29 28 28 27 26 26 26 25 25 26 26 27 28 28 29 29 29 29 30 31 31 30 29 29 28 27 26 25 24 24 25 25 26 27 27 29 30 31 32 33 33 33 32 32 32 32 32 32 33 33 34 33 32 33 34 36 36 36 35 35 34 33 31 29 28 29 30 29 28 26 24 24 24 24 23 22 22 23
28 29 29 29 29 28 28 27 27 27 27 26 26 26 26 26 26 26 27 27 28 28 28 28 28 29 30 30 30 29 28 29 29 29 27 25 24 23 24 24 25 26 27 28 30 31 32 33 33 33 34 34 33 32 31 31 32 32 33 33 34 35 35 35 35 35 35 34 33 31 29 28 28 29 29 28 26 25 24 24 23 23 22 22 23 23
27 28 28 29 29 28 28 27 27 27 27 27 27 27 27 26 26 27 27 28 28 28 28 28 28 29 30 30 30 29 28 29 30 30 29 28 27 25 24 24 25 26 27 28 29 30 31 32 32 33 34 34 34 34 33 33 33 33 33 34 34 34 35 35 35 35 34 33 32 31 29 29 29 29 28 27 27 27 27 26 25 24 23 23 24 24
27 28 28 28 28 28 28 27 27 27 27 28 28 28 28 27 26 26 27 28 28 28 28 28 28 28 29 29 29 28 28 28 29 30 30 30 29 27 26 25 25 25 27 28 29 30 31 31 32 32 32 33 34 35 35 34 34 33 33 33 33 33 33 35 35 35 34 33 32 31 30 29 27 26 26 29 31 31 29 28 27 26 25 24 24 24
28 27 27 28 28 28 28 28 28 28 28 28 29 29 28 28 27 27 27 27 27 27 27 27 27 28 28 29 28 28 28 28 28 29 29 29 28 28 27 26 25 25 25 26 27 28 29 30 31 32 32 32 32 32 33 33 33 32 33 33 33 33 33 34 34 34 33 33 32 31 29 27 26 25 27 31 32 31 29 29 29 28 25 25 24 24
28 28 27 28 28 28 28 28 28 28 29 29 29 29 29 29 28 28 27 27 26 26 26 27 27 27 28 29 29 28 28 28 28 29 28 28 27 27 27 27 27 26 26 26 26 26 26 26 27 29 30 30 29 29 30 30 30 31 32 32 32 32 32 33 33 33 32 32 31 30 28 27 26 27 29 30 29 28 28 29 29 27 25 24 24 22
Wind_Direction
283 283 282 281 281 281 280 279 278 277 275 273 270 268 266 265 264 264 265 266 267 268 269 270 271 272 273 275 276 277 279 280 281 281 282 283 283 284 285 286 287 288 287 287 286 284 283 283 283 283 283 282 280 277 273 269 266 263 260 257 255 254 255 256 257 257 252 244 238 237 239 240 239 238 237 236 234 232 230 230 229 230 231 232 233 232
291 290 288 286 284 282 280 279 277 275 274 274 273 272 272 271 270 270 270 270 270 271 272 273 274 275 275 276 276 277 278 278 278 279 279 280 280 281 283 284 284 285 284 283 282 282 281 281 281 281 281 281 280 278 275 271 268 265 262 259 257 254 253 253 254 254 252 246 241 239 240 239 237 236 237 237 236 234 232 231 231 231 233 233 234 233
292 289 284 281 277 275 274 273 273 272 271 271 271 272 272 273 273 274 274 274 274 274 275 276 276 276 276 276 275 275 275 275 276 276 277 278 279 280 281 282 282 282 281 281 280 280 280 280 280 279 279 279 279 278 276 273 269 266 263 260 258 256 254 252 252 251 251 248 244 241 241 240 238 235 234 236 236 235 234 233 232 233 233 234 234 234
285 280 277 275 273 271 271 271 271 271 270 270 270 271 271 272 272 273 274 274 275 275 276 276 275 275 274 274 273 273 273 273 274 275 276 277 279 280 281 281 281 280 280 280 281 281 281 281 280 279 278 278 278 278 277 275 271 268 264 262 260 257 255 253 251 250 249 248 246 243 242 242 240 237 234 233 235 236 235 234 233 233 233 234 234 233
278 275 274 274 273 273 272 272 272 272 272 271 271 271 271 271 272 273 274 274 274 274 274 274 273 273 273 273 272 272 272 272 273 274 275 276 277 278 279 279 278 278 278 279 281 281 281 279 278 277 277 277 277 278 278 276 274 270 267 264 262 260 258 255 252 250 249 247 246 244 243 243 243 241 236 233 232 234 235 236 235 234 234 234 233 233
275 273 274 274 274 274 275 274 274 274 274 274 274 273 273 273 274 274 275 275 275 274 274 274 273 272 272 272 272 272 272 272 272 273 274 274 275 275 275 275 274 274 275 276 276 277 276 275 274 273 273 274 274 275 276 276 274 273 270 268 265 263 260 258 255 252 249 247 246 245 244 244 245 244 241 235 231 231 233 235 236 236 235 234 234 233
275 274 275 275 275 276 276 276 277 277 277 278 278 278 277 277 277 277 277 277 277 276 276 275 274 273 273 272 272 272 272 272 271 271 271 271 272 272 272 271 271 271 271 270 270 269 270 270 270 270 269 269 270 271 272 273 274 274 274 272 269 266 264 261 258 255 252 249 247 245 244 244 245 246 244 239 234 230 230 233 235 236 236 236 235 234
276 276 276 276 277 278 278 278 278 279 279 280 281 282 282 282 281 281 280 280 280 279 279 278 277 276 275 274 273 273 272 271 271 270 270 270 270 270 269 269 269 268 267 266 264 264 265 266 266 266 266 266 267 268 270 272 275 276 276 276 274 271 268 266 263 259 255 252 249 246 244 243 244 245 245 242 237 232 230 231 233 235 236 237 237 236
276 277 278 278 278 279 280 280 280 281 281 282 283 284 285 286 285 285 284 283 282 281 281 281 280 279 278 277 275 274 273 272 272 271 271 270 269 268 267 267 266 265 263 261 260 259 260 262 263 263 264 265 266 268 270 272 275 277 278 279 278 277 274 272 268 264 260 256 252 249 246 244 243 243 243 243 240 236 233 232 233 234 236 238 238 239
277 278 279 280 280 280 281 282 283 283 284 284 284 284 285 286 286 287 286 284 283 282 282 281 281 281 280 279 278 276 275 274 273 271 270 269 267 266 265 264 263 262 260 259 257 257 258 259 259 260 262 263 265 267 269 271 274 276 278 280 280 280 279 276 273 269 265 261 257 253 249 246 243 242 241 241 240 239 236 235 234 235 237 239 240 241
278 279 279 280 280 280 280 281 283 284 284 284 283 283 282 282 283 284 284 284 283 283 282 280 280 280 280 280 279 278 277 275 273 271 269 266 265 263 263 262 261 260 259 259 258 258 258 258 258 259 260 262 263 265 267 269 272 274 276 278 279 280 279 278 275 271 267 264 261 257 253 250 246 243 241 239 238 238 237 236 236 237 238 239 240 241
277 278 279 279 280 280 280 280 281 282 282 281 281 281 280 279 279 280 281 281 282 282 281 280 279 279 279 280 280 280 279 277 275 273 271 268 266 264 263 262 261 260 260 260 259 259 259 260 260 260 261 262 263 264 266 268 270 272 274 275 277 278 277 276 274 271 268 265 263 260 257 254 250 246 242 240 237 236 236 236 236 236 237 239 240 240
277 277 278 278 279 279 279 279 280 279 278 278 278 279 279 279 279 278 278 279 279 280 281 282 282 281 280 280 281 281 281 280 278 277 275 273 271 269 267 266 264 263 262 261 261 261 261 261 262 262 263 263 264 265 266 268 269 271 273 274 276 276 276 275 273 271 269 267 265 262 260 257 254 250 246 242 239 236 235 235 235 236 236 237 238 238
278 278 278 278 278 278 278 278 278 278 277 277 277 277 277 278 278 277 277 278 279 281 282 283 283 283 282 282 282 282 282 282 281 280 278 276 275 273 271 269 268 266 265 265 264 263 263 263 264 264 265 265 266 267 268 269 270 272 273 275 276 277 277 276 274 272 270 268 266 265 262 260 257 253 250 246 242 239 237 235 235 235 236 237 237 237
283 283 282 281 280 279 279 278 278 278 277 277 277 277 277 277 277 278 279 280 282 283 285 284 284 283 283 283 284 284 283 282 281 280 278 275 273 272 271 270 270 268 268 267 266 266 265 265 266 266 267 267 268 268 269 270 271 272 274 275 277 278 278 278 277 275 272 270 268 267 265 262 259 256 253 250 246 243 239 237 236 237 237 238 238 238
291 290 287 286 285 284 282 282 281 280 280 280 279 279 279 280 280 281 283 284 285 286 287 287 287 286 285 284 284 283 282 280 278 276 275 273 271 270 270 270 270 270 269 268 268 267 267 267 267 268 268 269 269 270 270 271 271 272 273 274 275 276 277 278 278 277 274 272 269 268 266 264 261 259 256 252 249 246 243 240 239 238 239 239 240 240
296 295 293 291 291 290 289 289 288 287 286 286 285 284 284 284 285 286 286 286 287 288 287 287 288 289 288 287 284 281 279 277 276 274 273 272 272 271 270 270 270 270 270 269 269 269 270 270 270 270 270 271 271 272 272 272 272 272 272 272 273 274 275 275 276 276 275 273 271 269 267 265 263 260 257 254 251 248 245 242 240 240 241 241 241 241
295 295 295 294 293 294 294 295 296 295 294 293 293 292 291 289 289 289 287 287 286 286 285 285 285 285 286 286 284 281 279 278 277 277 276 275 275 275 274 272 271 272 272 271 271 272 272 272 273 273 273 273 274 273 273 273 273 272 272 272 271 272 272 273 274 274 274 274 272 270 267 265 262 260 258 255 253 250 247 244 242 242 242 242 242 241
287 287 288 289 289 290 292 293 294 296 296 296 297 297 296 294 293 292 289 288 285 284 283 284 283 282 282 282 282 283 283 282 281 282 281 281 280 279 278 277 276 276 276 276 275 276 276 276 275 275 275 275 274 274 274 273 273 273 272 272 271 270 270 271 271 272 272 272 272 270 268 265 262 260 257 256 253 251 248 245 243 242 243 243 242 241
278 277 277 278 280 282 283 285 287 288 289 290 292 292 291 291 292 292 290 289 288 286 286 285 283 282 282 283 285 287 288 288 287 286 285 284 283 282 282 283 283 283 282 281 281 281 281 280 279 278 277 276 275 274 274 273 273 272 271 271 270 269 269 269 269 270 270 271 270 269 267 264 261 259 257 256 254 252 249 246 244 243 244 244 243 242
275 275 275 275 277 278 279 280 281 281 281 283 284 284 284 286 287 287 286 287 287 287 287 286 284 284 286 287 287 287 286 285 283 283 283 284 283 283 285 286 287 286 286 286 286 286 286 286 285 284 282 280 278 276 275 273 272 270 269 269 268 268 268 268 268 268 269 269 269 268 265 263 260 258 257 256 254 252 250 247 245 244 244 244 244 243
277 278 279 280 279 279 279 280 281 281 282 283 284 285 286 288 288 287 287 288 287 285 283 281 280 279 279 278 278 278 278 278 278 280 283 284 283 284 286 287 287 287 287 288 289 289 289 289 289 288 287 286 284 281 278 275 273 270 268 267 266 266 266 266 267 268 268 268 268 267 264 261 258 256 255 255 254 253 251 248 246 244 244 244 245 244
286 287 288 287 286 286 286 287 288 290 292 294 295 296 296 297 296 296 296 294 292 289 287 284 283 283 281 280 279 280 281 281 281 282 282 280 281 283 287 289 289 288 287 289 290 291 291 291 290 291 291 290 288 286 284 280 277 274 271 268 266 265 265 265 266 267 268 269 269 267 264 261 258 255 255 254 254 253 251 249 247 246 245 245 245 245
299 298 298 297 297 296 297 298 299 301 303 304 303 303 303 301 300 299 297 295 294 292 292 292 291 289 287 288 288 289 288 287 287 285 281 277 278 283 287 288 289 288 288 290 292 293 292 291 291 291 291 290 289 288 286 284 282 279 276 273 269 267 266 265 266 266 267 269 270 269 267 263 259 256 255 255 254 254 252 250 248 247 246 246 246 246
300 298 297 297 298 297 296 297 299 300 301 301 299 299 299 299 298 297 295 293 291 289 288 286 283 282 282 283 285 287 287 288 287 285 280 278 279 282 285 285 286 286 286 288 291 292 292 291 291 291 290 289 287 285 284 284 284 283 281 278 274 271 268 267 267 267 268 269 271 272 271 268 263 259 257 256 255 255 253 252 250 249 248 248 247 246
296 294 292 291 290 289 288 288 289 290 290 288 288 290 293 296 297 295 292 289 287 285 283 280 277 275 277 279 280 281 282 284 284 281 278 277 277 278 280 281 282 283 284 286 287 288 289 289 289 289 289 288 286 284 283 284 284 285 284 281 277 273 271 271 271 271 271 272 273 274 275 273 269 265 261 259 257 256 255 254 253 252 251 250 249 247
297 293 290 286 283 280 278 278 278 278 277 277 278 283 289 293 293 289 285 284 283 281 278 274 272 273 274 275 275 276 279 280 279 275 273 272 272 272 274 278 282 284 284 284 284 285 286 286 285 285 286 286 286 286 285 286 287 287 286 282 279 276 275 276 276 276 275 275 275 275 275 275 273 269 265 261 259 258 257 255 254 254 254 253 252 249
301 297 293 288 282 277 273 271 270 269 270 272 277 283 289 291 288 284 281 281 280 277 273 270 269 270 271 271 271 273 275 274 272 269 267 265 265 267 272 278 282 282 282 283 284 284 284 284 284 284 284 284 284 285 285 287 288 288 286 284 281 280 279 279 278 277 275 273 272 271 271 271 270 268 265 262 259 258 256 256 257 258 258 257 256 254
303 301 297 292 286 280 274 270 268 269 272 277 284 289 292 290 285 281 280 281 280 278 274 271 270 269 269 269 270 270 269 268 266 265 264 264 265 268 274 279 280 279 279 282 285 284 282 281 282 284 283 281 280 280 282 284 285 283 281 280 278 277 276 275 275 274 272 271 270 268 267 266 266 265 263 261 259 258 258 258 260 262 263 261 260 258
304 302 299 295 290 285 281 279 279 281 283 287 291 294 294 290 284 280 279 279 280 280 279 277 275 273 271 271 271 271 268 266 265 266 270 271 271 273 277 278 277 276 277 280 283 284 281 279 279 279 278 276 275 277 281 284 284 280 276 272 270 269 269 269 270 270 270 270 270 269 268 266 264 263 262 261 261 262 261 261 261 263 264 262 261 259
301 300 297 295 292 290 288 288 288 290 292 294 296 296 294 290 286 283 281 279 279 279 278 277 275 274 274 275 277 277 275 272 270 271 273 274 273 274 276 275 274 274 273 273 277 281 283 282 279 276 275 275 275 278 284 289 288 282 274 268 264 262 263 264 266 268 269 270 270 270 268 265 263 262 262 263 264 264 263 261 260 260 261 261 260 258
294 293 292 292 291 291 290 290 290 292 294 295 296 295 292 289 287 286 285 283 281 279 277 275 274 273 273 273 274 275 275 274 274 273 273 273 273 273 272 271 271 271 270 267 268 273 279 282 281 278 277 278 279 283 289 293 292 285 277 269 264 262 263 265 269 272 274 276 275 272 266 262 261 263 265 266 266 266 264 262 262 262 261 261 260 258
291 290 290 290 290 290 289 289 289 291 292 292 290 289 287 287 289 289 288 286 283 280 277 275 273 272 272 271 271 271 272 273 274 274 274 272 272 270 269 267 267 268 268 265 264 266 271 277 280 280 279 280 282 286 290 290 287 283 278 275 272 271 271 273 276 280 283 285 284 277 268 263 263 266 270 271 269 267 265 265 265 265 264 262 260 258
290 289 289 289 289 289 288 288 289 289 289 287 285 285 286 289 292 292 290 286 282 278 275 272 270 270 270 270 270 270 271 272 274 274 273 270 267 266 265 263 262 263 264 264 264 265 270 276 280 281 279 279 280 281 282 280 278 276 277 278 279 279 278 279 281 283 286 289 287 281 273 268 269 274 278 278 273 268 266 266 267 267 265 263 260 258
290 290 290 289 289 288 288 288 287 286 285 284 285 288 290 292 292 291 289 286 282 277 274 273 272 273 272 273 272 272 273 274 275 275 273 268 265 263 262 261 260 260 261 262 265 268 273 279 281 279 275 274 273 272 271 271 273 275 278 280 280 280 279 279 281 283 286 287 285 281 276 273 274 278 281 280 276 271 268 267 268 268 266 263 259 256
293 292 291 290 289 288 288 288 288 287 286 287 288 290 289 287 285 284 285 286 286 287 287 287 286 284 281 279 278 277 277 278 278 278 276 273 270 268 266 264 263 263 263 266 270 275 279 282 281 277 271 269 269 270 271 274 278 281 283 284 284 282 280 280 281 283 286 286 285 281 277 273 273 275 277 277 275 272 270 269 269 269 268 265 259 255
295 294 294 293 293 293 294 294 294 292 291 290 289 286 282 278 275 275 278 282 287 290 292 292 292 290 287 284 281 280 279 280 279 278 277 276 275 274 273 272 271 272 273 275 278 281 282 282 279 276 273 272 274 277 280 283 284 285 286 287 286 285 284 283 284 286 288 288 287 284 279 275 273 273 274 274 273 272 270 269 269 269 270 267 261 255
297 297 298 298 298 298 297 296 295 292 289 286 284 282 281 279 277 277 278 281 284 287 289 290 290 288 286 283 282 281 280 280 279 278 277 275 274 274 274 274 274 274 275 277 278 279 278 276 275 275 276 277 279 280 283 284 284 284 284 286 287 287 286 286 287 288 289 290 290 288 285 280 277 275 275 274 273 272 271 269 269 269 270 270 265 256
302 301 301 300 299 297 295 293 292 290 289 289 289 290 290 290 289 287 286 285 286 287 288 288 288 287 286 285 283 282 282 281 279 278 277 276 275 274 273 273 273 274 274 274 274 274 272 271 270 272 274 276 278 279 279 279 279 279 281 284 286 286 287 288 289 289 290 291 291 290 289 287 285 283 281 278 275 272 271 270 269 269 271 272 270 261
305 303 302 300 299 297 296 296 297 299 300 301 301 301 300 299 298 297 296 294 293 292 291 291 291 291 290 290 289 287 285 283 282 281 280 278 277 275 274 274 274 274 274 273 272 271 270 268 268 269 271 273 274 275 276 275 276 277 279 280 281 284 287 289 290 289 289 289 288 288 289 289 289 288 286 282 277 274 272 271 270 270 270 272 273 269
307 304 302 302 302 303 303 304 305 305 305 304 303 303 302 301 300 300 299 298 297 296 295 295 295 296 296 295 294 293 291 289 288 286 285 284 283 281 279 278 276 275 274 273 271 270 270 268 268 269 270 271 272 273 273 274 275 275 275 275 277 281 287 289 289 288 288 287 286 286 287 288 290 290 289 286 282 280 278 278 277 275 272 272 272 270
306 304 303 303 304 304 303 304 304 303 302 302 302 302 301 300 300 299 298 296 295 294 293 295 296 296 297 298 298 297 295 293 292 290 288 286 285 285 285 284 282 279 276 273 271 270 270 270 269 269 269 271 271 272 273 275 276 276 275 274 277 281 285 287 287 286 285 283 283 283 284 285 287 288 288 287 286 285 284 283 282 280 277 275 272 269
306 305 305 305 304 304 303 302 301 300 300 300 299 298 296 295 295 294 294 293 292 293 294 296 296 295 294 294 294 293 291 289 288 288 286 285 284 284 286 287 287 285 280 275 272 271 271 271 270 270 271 272 272 272 273 274 275 275 273 272 274 277 278 279 281 281 280 279 279 279 279 281 282 283 284 283 281 280 280 279 278 278 276 275 274 270
307 306 304 303 302 300 299 299 298 298 298 298 297 296 295 296 296 295 294 294 294 295 297 297 295 292 289 287 287 287 287 286 285 285 285 285 285 285 286 287 287 285 282 276 273 271 271 271 270 270 271 272 271 271 271 272 272 271 270 270 271 271 272 274 277 278 279 279 278 278 279 280 282 282 281 279 277 275 274 274 275 275 274 274 274 271
304 302 300 299 299 299 299 299 299 300 301 300 300 300 300 300 300 299 297 296 295 294 292 290 290 289 289 288 288 289 289 289 288 286 284 283 282 282 283 284 284 282 280 276 274 272 270 269 269 270 271 270 269 268 269 270 271 271 271 271 271 271 272 274 276 278 279 280 280 281 282 284 284 283 281 278 276 274 274 274 275 276 276 275 275 273
301 301 301 302 302 303 304 304 305 306 306 304 303 303 303 302 301 299 296 295 293 292 290 289 289 289 289 289 289 290 290 290 289 287 284 281 279 278 278 280 281 280 279 277 275 273 270 268 268 268 268 267 266 266 267 269 270 272 273 273 273 273 273 274 276 278 279 280 281 283 286 287 285 282 280 279 278 277 277 278 279 279 278 278 277 274
307 307 308 308 309 309 308 308 308 308 306 305 304 303 302 301 300 298 296 294 293 293 293 293 292 290 288 288 288 288 288 289 290 291 290 287 283 279 275 275 275 276 278 278 277 275 273 271 269 267 265 264 264 265 268 270 272 273 274 275 275 274 274 274 275 277 279 279 281 283 286 285 283 281 279 280 281 282 283 283 282 280 278 277 277 275
311 311 310 310 310 310 309 308 308 307 305 304 303 302 302 301 300 298 297 296 296 295 294 293 292 290 289 289 289 289 288 289 290 292 293 292 290 287 282 277 273 272 273 274 275 276 275 274 272 269 267 265 265 266 270 272 274 274 275 276 275 274 274 274 275 277 277 278 279 281 283 281 279 278 278 280 281 282 284 284 282 279 275 274 275 275
310 310 310 310 310 309 309 308 307 306 305 304 303 303 303 302 301 299 298 297 297 296 294 293 292 291 290 290 290 290 289 289 290 291 291 292 293 293 292 288 284 279 276 274 274 274 274 274 273 271 270 268 268 268 270 272 274 275 275 275 273 272 271 273 275 276 276 277 278 280 280 279 278 278 278 277 276 277 279 282 281 277 273 272 274 273
311 310 309 309 309 308 308 308 307 306 305 305 304 303 303 302 302 300 298 297 296 295 294 292 291 290 289 288 288 289 288 288 288 289 290 291 292 293 293 293 291 288 284 282 280 278 277 276 276 274 272 270 269 269 270 272 274 275 275 275 273 272 271 273 275 276 276 276 276 277 278 278 278 278 276 273 271 272 276 278 278 275 272 273 274 272
312 311 310 309 308 307 307 307 306 306 306 305 305 304 303 303 302 301 300 299 297 295 293 292 290 289 288 288 288 289 290 289 289 290 292 294 295 293 293 293 292 289 285 282 280 278 276 276 276 276 276 275 273 271 271 272 273 274 274 275 276 276 274 274 275 276 276 275 275 276 276 277 278 277 273 269 267 269 274 275 275 274 274 275 276 272